COSMOS 2414 [+]

Last updated on Wed Jun 28 2023 00:03:31 GMT+0000 (Coordinated Universal Time)

1 28521U 05002A 23177.61293039 .00000109 00000+0 78647-4 0 9993 2 28521 82.9493 145.3593 0039995 185.2788 174.7959 13.87709434933440
UTC large
Height (km)
Speed (km/s)
/
Latitude / Longitude
Inclination (degrees)
Orbital Period (minutes)
Azimuth
Elevation
Range (km)
Doppler Factor

Next 0 passes for location: London (51.5072 / 0.1276)

Sorry there are no passes over London.
COSMOS 2414 [+]